Thessaloniki, Greece

11:23 AM EET on January 20, 2018 (GMT +0200)
Makedonia

Weather History for LGTS - December, 2012

Change the Weather History Date:

Tuesday, December 4, 2012

  Actual Average Record
Temperature  
Mean Temperature 42 °F -  
Max Temperature 50 °F 51 °F 68 °F (2008)
Min Temperature 35 °F 37 °F 29 °F (2013)
Degree Days  
Heating Degree Days 22    
Moisture  
Dew Point 25 °F    
Average Humidity 49    
Maximum Humidity 65    
Minimum Humidity 17    
Precipitation  
Precipitation 0.00 in 0.07 in - ()
Sea Level Pressure  
Sea Level Pressure 29.79 in    
Wind  
Wind Speed 29 mph ()    
Max Wind Speed 51 mph    
Max Gust Speed 64 mph    
Visibility 6.2 miles    
Events      
Averages and records for this station are not official NWS values.
T = Trace of Precipitation, MM = Missing Value Source: Averaged Metar Reports

Daily Weather History Graph

Daily Weather History Graph

Search for Another Location

Airport or City:

Trip Planner

Search our weather history database for the weather conditions in past years. The results will help you decide how hot, cold, wet, or windy it might be!

Date:

Astronomy

Dec. 04, 2012 Rise Set
Actual Time 7:35 AM EET 5:01 PM EET
Civil Twilight 7:04 AM EET 5:31 PM EET
Nautical Twilight 6:30 AM EET 6:05 PM EET
Astronomical Twilight 5:57 AM EET 6:38 PM EET
Moon 10:30 PM EET (12/4) 11:19 AM EET (12/4)
Length of Visible Light 10h 26m
Length of Day
9h 25m
Waning Gibbous, 72% of the Moon is Illuminated
Dec 4
Waning Gibbous
Dec 6
Last Quarter
Dec 13
New
Dec 20
First Quarter
Dec 28
Full

Hourly Weather History & Observations

Time (EET) Temp. Windchill Dew Point Humidity Pressure Visibility Wind Dir Wind Speed Gust Speed Precip Events Conditions
12:20 AM 44.6 °F 32.9 °F 32.0 °F 61% 29.62 in 6.2 mi NNW 43.7 mph 57.5 mph N/A   Mostly Cloudy
12:50 AM 44.6 °F 32.7 °F 32.0 °F 61% 29.62 in 6.2 mi NNW 46.0 mph 57.5 mph N/A   Mostly Cloudy
1:20 AM 44.6 °F 32.7 °F 32.0 °F 61% 29.65 in 6.2 mi NNW 46.0 mph 62.1 mph N/A   Scattered Clouds
1:50 AM 44.6 °F 32.7 °F 32.0 °F 61% 29.65 in 6.2 mi NNW 46.0 mph 59.8 mph N/A   Partly Cloudy
2:00 AM 44 °F - 32 °F 52% 29.67 in 6 mi NNW 46.0 mph - -   Scattered Clouds
2:20 AM 44.6 °F 32.7 °F 30.2 °F 57% 29.65 in 6.2 mi NNW 46.0 mph 59.8 mph N/A   Partly Cloudy
2:50 AM 44.6 °F 32.2 °F 30.2 °F 57% 29.68 in 6.2 mi NNW 50.6 mph 63.3 mph N/A   Partly Cloudy
3:20 AM 44.6 °F 32.2 °F 30.2 °F 57% 29.68 in 6.2 mi NNW 50.6 mph 63.3 mph N/A   Partly Cloudy
3:50 AM 44.6 °F 32.2 °F 30.2 °F 57% 29.68 in 6.2 mi NNW 50.6 mph 64.4 mph N/A   Partly Cloudy
4:20 AM 42.8 °F 29.7 °F 30.2 °F 61% 29.71 in 6.2 mi NNW 50.6 mph 64.4 mph N/A   Partly Cloudy
4:50 AM 42.8 °F 29.7 °F 28.4 °F 57% 29.71 in 6.2 mi NNW 50.6 mph 64.4 mph N/A   Partly Cloudy
5:20 AM 42.8 °F 29.7 °F 28.4 °F 57% 29.74 in 6.2 mi NNW 50.6 mph 64.4 mph N/A   Partly Cloudy
5:50 AM 42.8 °F 30.4 °F 26.6 °F 53% 29.74 in 6.2 mi NNW 43.7 mph 63.3 mph N/A   Partly Cloudy
6:20 AM 42.8 °F 30.8 °F 24.8 °F 49% 29.77 in 6.2 mi NNW 40.3 mph 52.9 mph N/A   Partly Cloudy
6:50 AM 42.8 °F 31.9 °F 24.8 °F 49% 29.80 in 6.2 mi NNW 32.2 mph 46.0 mph N/A   Partly Cloudy
7:20 AM 42.8 °F 31.9 °F 26.6 °F 53% 29.83 in - NNW 32.2 mph 48.3 mph N/A   Clear
7:50 AM 42.8 °F 31.0 °F 26.6 °F 53% 29.80 in - NNW 39.1 mph 51.8 mph N/A   Clear
8:00 AM 43 °F - 26 °F 39% 29.81 in 6 mi NNW 39.1 mph - -  
8:20 AM 42.8 °F 30.8 °F 26.6 °F 53% 29.83 in - NNW 40.3 mph 51.8 mph N/A   Clear
9:20 AM 42.8 °F 32.3 °F 26.6 °F 53% 29.86 in - NNW 29.9 mph 41.4 mph N/A   Clear
9:50 AM 42.8 °F 33.1 °F 26.6 °F 53% 29.86 in - NNW 25.3 mph 36.8 mph N/A   Clear
10:20 AM 44.6 °F 35.5 °F 24.8 °F 46% 29.86 in - NNW 25.3 mph 36.8 mph N/A   Clear
10:50 AM 44.6 °F 35.9 °F 24.8 °F 46% 29.89 in - NNW 23.0 mph 35.7 mph N/A   Clear
11:20 AM 44.6 °F 36.6 °F 24.8 °F 46% 29.89 in - NNW 19.6 mph 31.1 mph N/A   Clear
11:50 AM 46.4 °F 39.5 °F 24.8 °F 43% 29.89 in - NNW 17.3 mph 31.1 mph N/A   Clear
12:20 PM 46.4 °F 39.5 °F 21.2 °F 37% 29.86 in - NNW 17.3 mph 32.2 mph N/A   Clear
12:50 PM 48.2 °F - 21.2 °F 34% 29.86 in - NNW 17.3 mph - N/A   Clear
1:20 PM 50.0 °F - 23.0 °F 35% 29.86 in - NNW 11.5 mph 23.0 mph N/A   Clear
1:50 PM 50.0 °F - 19.4 °F 30% 29.83 in - NNW 19.6 mph - N/A   Clear
2:00 PM 50 °F - 19 °F 17% 29.85 in 6 mi NNW 19.6 mph - -   Scattered Clouds
2:20 PM 50.0 °F - 24.8 °F 37% 29.83 in - NNW 21.9 mph - N/A   Clear
2:50 PM 50.0 °F - 23.0 °F 35% 29.83 in - NW 18.4 mph - N/A   Clear
3:20 PM 50.0 °F - 21.2 °F 32% 29.83 in - NW 15.0 mph - N/A   Clear
3:50 PM 50.0 °F - 21.2 °F 32% 29.80 in - NNW 18.4 mph - N/A   Clear
4:20 PM 50.0 °F - 19.4 °F 30% 29.80 in - NNW 15.0 mph - N/A   Clear
4:50 PM 50.0 °F - 19.4 °F 30% 29.80 in - NNW 9.2 mph - N/A   Clear
5:20 PM 48.2 °F - 19.4 °F 32% 29.80 in 6.2 mi NNW 6.9 mph - N/A   Scattered Clouds
5:50 PM 46.4 °F 45.2 °F 19.4 °F 34% 29.80 in 6.2 mi Variable 3.5 mph - N/A   Scattered Clouds
6:20 PM 41.0 °F 39.0 °F 19.4 °F 42% 29.80 in 6.2 mi Variable 3.5 mph - N/A   Partly Cloudy
6:50 PM 41.0 °F 39.0 °F 21.2 °F 45% 29.80 in 6.2 mi Variable 3.5 mph - N/A   Partly Cloudy
7:20 PM 37.4 °F 34.9 °F 24.8 °F 60% 29.83 in - Variable 3.5 mph - N/A   Clear
7:50 PM 37.4 °F 33.8 °F 26.6 °F 65% 29.83 in - SE 4.6 mph - N/A   Clear
8:00 PM 37 °F - 26 °F 53% 29.83 in 6 mi SE 4.6 mph - -   Clear
8:20 PM 37.4 °F - 24.8 °F 60% 29.83 in 6.2 mi Variable 2.3 mph - N/A   Partly Cloudy
8:50 PM 35.6 °F 31.7 °F 24.8 °F 65% 29.83 in 6.2 mi ESE 4.6 mph - N/A   Partly Cloudy
9:20 PM 35.6 °F 30.7 °F 24.8 °F 65% 29.83 in 6.2 mi East 5.8 mph - N/A   Partly Cloudy
9:50 PM 35.6 °F 29.2 °F 24.8 °F 65% 29.83 in 6.2 mi ESE 8.1 mph - N/A   Partly Cloudy
10:20 PM 37.4 °F 32.1 °F 23.0 °F 56% 29.80 in 6.2 mi SE 6.9 mph - N/A   Partly Cloudy
10:50 PM 37.4 °F 32.8 °F 21.2 °F 52% 29.80 in - SSE 5.8 mph - N/A   Clear
11:20 PM 35.6 °F 30.7 °F 24.8 °F 65% 29.80 in - East 5.8 mph - N/A   Clear
11:50 PM 37.4 °F - 23.0 °F 56% 29.80 in 6.2 mi Variable 2.3 mph - N/A   Partly Cloudy